Scroll down
FLIGHT INFORMATION
Southern Air

SOO2201

At Arrival Gate

SBRF
 GOOY
DATE: 2020-09-08
GATE:  -
GATE DEPARTURE: 14:32
TAKEOFF: 14:40
DATE: 2020-09-08
GATE:  -
LANDING: 19:04
GATE ARRIVAL: 19:08
FLIGHT DATA
Speed: 
497 kts
Altitude: 
33,021 ft
Stage Length: 
1,721.5 nm
Block Time: 
3.7 hrs
Flight Time: 
4.4 hrs
Fuel Used: 
-9,223 lb
Cleared Route: SBRF MOVLA AMBET VURBI MOXIP BUGAT REGIS ARUNU BUTAP KODOS TAROT INIRO BOMSA DS GATRO RW01
TRACK DATA
50,000 ft 1,000 kts
AIRCRAFT INFO AND CUMULATIVE STATS
Aircraft Type: 
B738BCF
Registration: 
SELCAL: 
MSN/LN: 
32884 / 1181
Operator: 
Total Flights: 
11
Total Block Time: 
38.8 hrs
Total Flight Time: 
37.5 hrs
Total Fuel Time: 
191,455 lb
DATALINK LOG | Newest first | Current as of: 2021-06-24 08:44:25
LABEL SEQUENCE CONTENT Dn/Up
QD183019:08 9.2▼ Dn
QC132519:04▼ Dn
GA2423ADVANCED GATE ASSIGNMENTS NOT YET AVAILABLE AT THIS AIRPORT▲ Up
GR2413GOBD 18:48 MAAS YP/UM WCHR/S/C HI-VAL YES DIPL/VIP NO▼ Dn
5U3931GOBD 082147Z 22012KT 9999 SCT012 28/24 Q1011▲ Up
2U1517GOBD 081730Z 22011KT 9999 BKN012 28/24 Q1011 NOSIG▲ Up
GA5153ADVANCED GATE ASSIGNMENTS NOT YET AVAILABLE AT THIS AIRPORT▲ Up
GR5143GOBD 18:48 MAAS YP/UM WCHR/S/C HI-VAL YES DIPL/VIP NO▼ Dn
GA5153ADVANCED GATE ASSIGNMENTS NOT YET AVAILABLE AT THIS AIRPORT▲ Up
GR5143GOBD 18:48 MAAS YP/UM WCHR/S/C HI-VAL YES DIPL/VIP NO▼ Dn
5S5142GOBD▼ Dn
2S5142GOBD▼ Dn
5U4618GOBD 081847Z 22010KT 4000 TSRA BKN010 FEW025CB 29/25 Q1010▲ Up
5S4846GOBD▼ Dn
QB434114:40▼ Dn
QA353314:32 39.4▼ Dn
Q03432[LINK ACK]▲ Up
Q03432[LINK TEST]▼ Dn
QA152914:12 40▼ Dn
Q01125[LINK ACK]▲ Up
Q01125[LINK TEST]▼ Dn


AIRCRAFT HISTORY
FLIGHT DATE FLIGHT NO. ORIGIN DESTINATION CLEARED ROUTE BLOCK TIME FLIGHT TIME FUEL USED PILOT
2021-04-27SOO2201BIRK CYUL BIRK 6330N 6140N 5850N ENNSO YBC ML PENTU CYUL5.2 hrs4.8 hrs27,574 lbRoberto Stopnicki
2021-04-26SOO2201LDSP BIRK LDSP ZDA ULPIN CRE GEMKA VEKEN KUMOM BABEG PITES REMBA GODOS BINBO ROKAN NEXUS STN AKIVO ATSIX NASBU BIRK4.8 hrs4.7 hrs26,961 lbRoberto Stopnicki
2021-04-22SOO2201LOWI LDSP LOWI BRENO RISOM BARPI NUPSO LDSP1.2 hrs1.1 hrs6,801 lbRoberto Stopnicki
2020-12-24SOO2201EGKK LOWI EGKK KKE04 KKE10 KKE17 ODVIK DVR KONAN KOK KOMOB DIK PITES EDISA BATUB OSDOV MADEB ELMEM RTTNB RW261.6 hrs1.4 hrs8,092 lbRoberto Stopnicki
2020-10-22SOO9S2201LEMD EGKK LEMD SIE EDIGO DGO BLV MAPAX NENEM PEXOD DESAB TEPRA NORMI MOKOR TERPO GODAN REN UPALO REVTU ODREP GOKTU VASUX EGKK1.9 hrs1.7 hrs9,208 lbRoberto Stopnicki
2020-10-19SOO2201LXGB LEMD LXGB PIMOS MGA BLN MORAL LEMD1.7 hrs1.4 hrs10,465 lbRoberto Stopnicki
2020-09-11SOO2201GOOY LXGB GOOY 2410N BULIS DIVUX TOPMA MAK TNG LXGB3.7 hrs3.6 hrs24,722 lbRoberto Stopnicki
2020-09-08SOO2201SBRF GOOY SBRF MOVLA AMBET VURBI MOXIP BUGAT REGIS ARUNU BUTAP KODOS TAROT INIRO BOMSA DS GATRO RW013.7 hrs4.4 hrs30,200 lbRoberto Stopnicki
2020-09-06SOO2201SAEZ SBRF SAEZ DORVO PABOT LOMID ANRUP MLO OGRUN DEVOT ABELA OPROR NELOX ITBEB TIMVI UTMUD EGBIP UGREV DOKPU EKUBI EGDED ANDEB EVPIB DOKRO FEITO AKNUB VUDAV BITAK NISBO KOVGO MIA VUPIP SEGLI MOLSU UKENU DOGSU SASBU OPLOX SATBU DAGEL XUVUD SGR BIDEV NAXOV IRUMI ESLIB MEDIT RUBEN SBRF4.7 hrs4.6 hrs26,676 lbRoberto Stopnicki
2020-09-02SOO2201SEQM SAEZ SEQM VURIS PAV VUKOK PUL URC ILMOX JUL ARSUN UBSAS USTOT NAXET JUJ ASODO VADUN GAVEX ESPER DADMI ERE ROMUR ISOPO SNT SAEZ5.2 hrs5.1 hrs32,535 lbRoberto Stopnicki
2020-08-09SOO2311KIAH SEQM KIAH TTAPS BOTLL FLYZA PPALE VUH KELPP KEHLI SUVUM LEVAT RORLA ITLOM IGTOB MUXOG AXEVU VIGTU VOBED CZM ITAKU SIGMA AMESI TEKUG SPP MORLI TBG MILAT TOKUT TCO ENSOL NEGAL QIT SEQM5 hrs4.8 hrs27,643 lbMichael Roth